EW8182 Weather Reports


Display with metric or nautical units.
time (UTC)temp
F
wind
direction
speed
MPH
gust
MPH
rain 1hr
in
rain 24hr
in
rain mn
in
humidity
%
barometer
mb
20260903001612 84 244 1.0 3.0 0.00 0.00 0.00 72 1015.2
20260903001112 85 244 1.0 3.0 0.00 0.00 0.00 71 1015.2
20260903000611 85 244 1.0 3.0 0.00 0.00 0.00 71 1015.3
20260903000111 85 244 2.0 3.0 0.00 0.00 0.00 70 1015.2
20260902235616 85 242 2.0 4.0 0.00 0.00 0.00 70 1015.2
20260902235612 85 242 2.0 3.0 0.00 0.00 0.00 70 1015.2
20260902234610 86 238 2.0 4.0 0.00 0.00 0.00 70 1015.2
20260902234109 86 244 2.0 4.0 0.00 0.00 0.00 70 1015.2
20260902233609 86 226 2.0 3.0 0.00 0.00 0.00 70 1015.1
20260902233115 87 238 3.0 5.0 0.00 0.00 0.00 69 1015.2
20260902233109 86 241 2.0 3.0 0.00 0.00 0.00 70 1015.1
20260902232609 86 242 3.0 5.0 0.00 0.00 0.00 69 1015.1
20260902231610 87 232 3.0 5.0 0.00 0.00 0.00 69 1015.2
20260902231109 87 242 3.0 5.0 0.00 0.00 0.00 68 1015.2
20260902230610 87 242 4.0 8.0 0.00 0.00 0.00 68 1015.2
20260902230108 87 236 4.0 8.0 0.00 0.00 0.00 69 1015.2
20260902225611 88 244 3.0 8.0 0.00 0.00 0.00 68 1015.2
20260902225607 87 236 3.0 8.0 0.00 0.00 0.00 68 1015.2
20260902224607 88 234 3.0 7.0 0.00 0.00 0.00 68 1015.3
20260902224113 89 240 3.0 7.0 0.00 0.00 0.00 66 1015.3
20260902224108 88 228 4.0 7.0 0.00 0.00 0.00 67 1015.3
20260902223107 89 217 3.0 7.0 0.00 0.00 0.00 65 1015.2
20260902222608 89 226 4.0 9.0 0.00 0.00 0.00 65 1015.3
20260902222108 89 227 4.0 9.0 0.00 0.00 0.00 66 1015.3
20260902221612 90 229 4.0 9.0 0.00 0.00 0.00 66 1015.3
20260902221607 90 213 4.0 9.0 0.00 0.00 0.00 64 1015.3
20260902221213 90 240 4.0 9.0 0.00 0.00 0.00 64 1015.4
20260902220111 91 237 3.0 6.0 0.00 0.00 0.00 64 1015.5
20260902220105 90 231 4.0 8.0 0.00 0.00 0.00 63 1015.4
20260902215605 91 225 3.0 7.0 0.00 0.00 0.00 64 1015.4
20260902215210 91 238 3.0 7.0 0.00 0.00 0.00 66 1015.5
20260902214605 91 236 3.0 6.0 0.00 0.00 0.00 65 1015.5
20260902213605 91 246 3.0 7.0 0.00 0.00 0.00 62 1015.5
20260902213105 91 213 4.0 7.0 0.00 0.00 0.00 67 1015.5
20260902212604 90 229 5.0 9.0 0.00 0.00 0.00 64 1015.5
20260902212109 90 244 5.0 9.0 0.00 0.00 0.00 63 1015.5
20260902212105 90 205 5.0 7.0 0.00 0.00 0.00 65 1015.7
20260902211103 91 225 5.0 9.0 0.00 0.00 0.00 66 1015.7
20260902210602 91 218 5.0 9.0 0.00 0.00 0.00 65 1015.7
20260902210103 91 237 5.0 9.0 0.00 0.00 0.00 61 1015.8
20260902205602 92 240 3.0 9.0 0.00 0.00 0.00 64 1015.8
20260902205103 92 215 2.0 7.0 0.00 0.00 0.00 63 1015.9
20260902204602 92 217 4.0 8.0 0.00 0.00 0.00 63 1015.8
20260902204102 92 236 4.0 8.0 0.00 0.00 0.00 62 1015.8
20260902203603 92 224 2.0 6.0 0.00 0.00 0.00 61 1015.8
20260902203103 92 218 3.0 8.0 0.00 0.00 0.00 60 1015.9
20260902202603 92 250 4.0 8.0 0.00 0.00 0.00 63 1016.0
20260902202100 92 231 3.0 8.0 0.00 0.00 0.00 60 1016.0
20260902201601 92 236 2.0 8.0 0.00 0.00 0.00 60 1016.0
20260902201211 92 225 4.0 9.0 0.00 0.00 0.00 60 1016.1
20260902201105 92 242 2.0 6.0 0.00 0.00 0.00 61 1016.0
20260902201101 92 241 2.0 7.0 0.00 0.00 0.00 59 1016.0
20260902200705 91 240 3.0 7.0 0.00 0.00 0.00 59 1016.0
20260902195100 92 232 4.0 9.0 0.00 0.00 0.00 61 1016.2
20260902194600 92 238 4.0 9.0 0.00 0.00 0.00 64 1016.2
20260902194101 91 219 3.0 7.0 0.00 0.00 0.00 66 1016.3
20260902193600 91 205 4.0 10.0 0.00 0.00 0.00 65 1016.3
20260902193101 91 238 5.0 10.0 0.00 0.00 0.00 59 1016.4
20260902192600 91 238 5.0 10.0 0.00 0.00 0.00 60 1016.5
20260902192101 91 211 5.0 11.0 0.00 0.00 0.00 63 1016.5
20260902191601 91 257 4.0 11.0 0.00 0.00 0.00 62 1016.5
20260902191100 91 207 4.0 11.0 0.00 0.00 0.00 63 1016.6
20260902190600 91 236 3.0 10.0 0.00 0.00 0.00 64 1016.7
20260902190059 90 225 3.0 9.0 0.00 0.00 0.00 60 1016.7
20260902185603 90 240 5.0 9.0 0.00 0.00 0.00 66 1016.9
20260902185559 90 209 4.0 9.0 0.00 0.00 0.00 62 1016.8
20260902185055 90 232 5.0 8.0 0.00 0.00 0.00 68 1016.8
20260902184555 91 226 5.0 10.0 0.00 0.00 0.00 66 1016.9
20260902184055 90 243 5.0 10.0 0.00 0.00 0.00 66 1016.9
20260902183054 90 239 4.0 9.0 0.00 0.00 0.00 64 1017.0
20260902182554 90 239 3.0 7.0 0.00 0.00 0.00 65 1017.0
20260902182054 90 216 4.0 10.0 0.00 0.00 0.00 67 1017.0
20260902181600 90 246 2.0 8.0 0.00 0.00 0.00 65 1017.0
20260902181556 89 244 4.0 10.0 0.00 0.00 0.00 66 1017.0
20260902180554 89 239 3.0 10.0 0.00 0.00 0.00 67 1017.1
20260902180055 89 242 4.0 10.0 0.00 0.00 0.00 64 1017.2
20260902175555 89 220 3.0 8.0 0.00 0.00 0.00 63 1017.2
20260902175058 89 228 4.0 8.0 0.00 0.00 0.00 65 1017.3
20260902175054 89 221 3.0 8.0 0.00 0.00 0.00 69 1017.2
20260902174052 90 241 4.0 8.0 0.00 0.00 0.00 70 1017.4
20260902173552 90 236 3.0 8.0 0.00 0.00 0.00 67 1017.5
20260902173052 90 213 2.0 7.0 0.00 0.00 0.00 69 1017.5
20260902172553 90 236 2.0 6.0 0.00 0.00 0.00 68 1017.5
20260902172052 90 219 3.0 10.0 0.00 0.00 0.00 67 1017.6
20260902171552 89 229 5.0 10.0 0.00 0.00 0.00 71 1017.7
20260902171053 89 254 6.0 12.0 0.00 0.00 0.00 69 1017.7
20260902170551 89 223 6.0 12.0 0.00 0.00 0.00 68 1017.7
20260902170052 89 196 5.0 9.0 0.00 0.00 0.00 67 1017.6
20260902165550 89 244 4.0 9.0 0.00 0.00 0.00 70 1017.7
20260902165049 89 231 4.0 7.0 0.00 0.00 0.00 69 1017.7
20260902164549 89 238 4.0 8.0 0.00 0.00 0.00 70 1017.8
20260902164048 89 240 3.0 8.0 0.00 0.00 0.00 71 1017.7
20260902163548 89 238 3.0 8.0 0.00 0.00 0.00 72 1017.8
20260902163052 88 229 5.0 8.0 0.00 0.00 0.00 71 1017.9
20260902163048 88 244 4.0 8.0 0.00 0.00 0.00 71 1017.9
20260902162048 88 215 5.0 8.0 0.00 0.00 0.00 73 1017.9
20260902161548 87 205 4.0 8.0 0.00 0.00 0.00 74 1017.8
20260902161048 87 210 5.0 8.0 0.00 0.00 0.00 73 1017.9
20260902160548 87 214 4.0 9.0 0.00 0.00 0.00 73 1017.9
20260902160048 87 225 3.0 9.0 0.00 0.00 0.00 73 1018.0
20260902155555 87 236 3.0 9.0 0.00 0.00 0.00 75 1018.0
20260902155548 87 232 4.0 7.0 0.00 0.00 0.00 74 1018.0
20260902155048 87 219 4.0 9.0 0.00 0.00 0.00 73 1018.0
20260902154548 87 235 3.0 9.0 0.00 0.00 0.00 71 1018.0
20260902153549 87 238 3.0 9.0 0.00 0.00 0.00 72 1018.1
20260902153047 86 219 3.0 7.0 0.00 0.00 0.00 75 1018.1
20260902152546 86 234 4.0 7.0 0.00 0.00 0.00 75 1018.1
20260902152050 86 176 4.0 8.0 0.00 0.00 0.00 74 1018.1
20260902151546 86 229 4.0 8.0 0.00 0.00 0.00 76 1018.1
20260902151045 85 230 5.0 8.0 0.00 0.00 0.00 76 1018.1
20260902150546 85 210 4.0 7.0 0.00 0.00 0.00 77 1018.2
20260902150050 85 219 2.0 6.0 0.00 0.00 0.00 77 1018.2
20260902150046 85 221 3.0 7.0 0.00 0.00 0.00 76 1018.2
20260902145049 85 240 3.0 7.0 0.00 0.00 0.00 77 1018.2
20260902145044 85 215 3.0 8.0 0.00 0.00 0.00 77 1018.2
20260902144648 85 225 3.0 8.0 0.00 0.00 0.00 77 1018.2
20260902143544 85 218 2.0 5.0 0.00 0.00 0.00 77 1018.2
20260902143044 84 241 3.0 7.0 0.00 0.00 0.00 79 1018.1
20260902142544 83 240 4.0 8.0 0.00 0.00 0.00 77 1018.1
20260902142044 83 214 4.0 8.0 0.00 0.00 0.00 78 1018.1
20260902141544 83 232 4.0 7.0 0.00 0.00 0.00 79 1018.2
20260902141043 83 253 3.0 7.0 0.00 0.00 0.00 78 1018.1
20260902140544 83 230 3.0 6.0 0.00 0.00 0.00 81 1018.0
20260902140043 82 219 4.0 8.0 0.00 0.00 0.00 80 1018.1
20260902135544 82 235 3.0 8.0 0.00 0.00 0.00 80 1018.0
20260902135044 82 210 1.0 5.0 0.00 0.00 0.00 82 1018.1
20260902134544 82 234 1.0 4.0 0.00 0.00 0.00 83 1018.1
20260902134043 81 208 2.0 4.0 0.00 0.00 0.00 84 1018.1
20260902133544 80 238 2.0 5.0 0.00 0.00 0.00 83 1018.1
20260902133043 80 244 3.0 7.0 0.00 0.00 0.00 83 1018.1
20260902132543 80 222 3.0 7.0 0.00 0.00 0.00 83 1018.0
20260902132044 79 247 3.0 7.0 0.00 0.00 0.00 84 1018.0
20260902131543 79 242 2.0 5.0 0.00 0.00 0.00 85 1018.1
20260902131044 79 230 1.0 4.0 0.00 0.00 0.00 86 1018.1
20260902130543 79 244 1.0 3.0 0.00 0.00 0.00 87 1018.2
20260902130045 78 239 2.0 3.0 0.00 0.00 0.00 87 1018.1
20260902125544 78 221 2.0 3.0 0.00 0.00 0.00 88 1018.2
20260902125044 77 224 2.0 4.0 0.00 0.00 0.00 88 1018.2
20260902124543 77 229 2.0 4.0 0.00 0.00 0.00 89 1018.1
20260902124044 76 231 0.0 3.0 0.00 0.00 0.00 89 1018.1
20260902123543 76 233 0.0 0.0 0.00 0.00 0.00 90 1018.0
20260902123049 75 220 0.0 0.0 0.00 0.00 0.00 90 1017.9
20260902123045 76 219 0.0 0.0 0.00 0.00 0.00 90 1018.0
20260902122043 75 212 0.0 0.0 0.00 0.00 0.00 90 1017.9
20260902121543 75 212 0.0 0.0 0.00 0.00 0.00 90 1017.9
20260902121041 74 212 0.0 0.0 0.00 0.00 0.00 91 1017.8
20260902120541 74 212 0.0 0.0 0.00 0.00 0.00 91 1017.8
20260902120041 74 211 0.0 0.0 0.00 0.00 0.00 91 1017.7
20260902115542 73 212 0.0 0.0 0.00 0.00 0.00 92 1017.7
20260902115041 73 212 0.0 0.0 0.00 0.00 0.00 92 1017.7
20260902114541 73 211 0.0 0.0 0.00 0.00 0.00 92 1017.6
20260902114042 72 212 0.0 0.0 0.00 0.00 0.00 92 1017.5
20260902114038 72 212 0.0 0.0 0.00 0.00 0.00 91 1017.4
20260902113037 72 212 0.0 0.0 0.00 0.00 0.00 91 1017.4
20260902112537 72 212 0.0 0.0 0.00 0.00 0.00 91 1017.3
20260902112037 73 212 0.0 0.0 0.00 0.00 0.00 91 1017.3
20260902111538 73 211 0.0 0.0 0.00 0.00 0.00 91 1017.3
20260902111039 73 212 0.0 0.0 0.00 0.00 0.00 91 1017.3
20260902111035 73 212 0.0 0.0 0.00 0.00 0.00 91 1017.3
20260902110642 73 211 0.0 0.0 0.00 0.00 0.00 91 1017.3
20260902105535 73 212 0.0 0.0 0.00 0.00 0.00 91 1017.2
20260902105041 72 236 0.0 0.0 0.00 0.00 0.00 92 1017.4
20260902105037 73 212 0.0 0.0 0.00 0.00 0.00 92 1017.3
20260902104035 72 236 0.0 0.0 0.00 0.00 0.00 92 1017.4
20260902103535 72 236 0.0 0.0 0.00 0.00 0.00 92 1017.4
20260902103036 72 236 0.0 0.0 0.00 0.00 0.00 92 1017.3
20260902102536 72 236 0.0 0.0 0.00 0.00 0.00 92 1017.3
20260902102033 72 236 0.0 0.0 0.00 0.00 0.00 92 1017.3
20260902101534 72 236 0.0 0.0 0.00 0.00 0.00 92 1017.1
20260902101034 72 236 0.0 0.0 0.00 0.00 0.00 91 1017.2
20260902100533 72 236 0.0 0.0 0.00 0.00 0.00 91 1017.2
20260902100033 72 236 0.0 0.0 0.00 0.00 0.00 91 1017.1
20260902095538 73 236 0.0 0.0 0.00 0.00 0.00 91 1017.2
20260902095534 73 236 0.0 0.0 0.00 0.00 0.00 91 1017.1
20260902094538 73 236 0.0 0.0 0.00 0.00 0.00 91 1017.2
20260902094534 73 236 0.0 0.0 0.00 0.00 0.00 91 1017.1
20260902094032 73 236 0.0 0.0 0.00 0.00 0.00 91 1017.1
20260902093032 73 236 0.0 0.0 0.00 0.00 0.00 91 1017.1
20260902092532 73 236 0.0 0.0 0.00 0.00 0.00 91 1017.0
20260902092036 72 236 0.0 0.0 0.00 0.00 0.00 91 1017.0
20260902092032 73 236 0.0 0.0 0.00 0.00 0.00 91 1017.0
20260902091531 73 236 0.0 0.0 0.00 0.00 0.00 92 1017.1
20260902090531 72 236 0.0 0.0 0.00 0.00 0.00 91 1017.0
20260902090036 73 236 0.0 0.0 0.00 0.00 0.00 91 1016.9
20260902085531 73 236 0.0 0.0 0.00 0.00 0.00 91 1016.9
20260902085035 73 236 0.0 0.0 0.00 0.00 0.00 91 1016.8
20260902085031 73 236 0.0 0.0 0.00 0.00 0.00 91 1016.9
20260902084029 73 236 0.0 0.0 0.00 0.00 0.00 91 1016.8
20260902083528 73 236 0.0 0.0 0.00 0.00 0.00 91 1016.7
20260902083029 73 236 0.0 0.0 0.00 0.00 0.00 91 1016.7
20260902082531 73 236 0.0 0.0 0.00 0.00 0.00 91 1016.7
20260902082032 73 236 0.0 0.0 0.00 0.00 0.00 91 1016.7
20260902082028 73 236 0.0 0.0 0.00 0.00 0.00 91 1016.6
20260902081029 73 236 0.0 0.0 0.00 0.00 0.00 91 1016.6
20260902080526 73 236 0.0 0.0 0.00 0.00 0.00 91 1016.6
20260902080027 73 236 0.0 0.0 0.00 0.00 0.00 91 1016.6
20260902075531 73 236 0.0 0.0 0.00 0.00 0.00 91 1016.5
20260902075527 73 236 0.0 0.0 0.00 0.00 0.00 91 1016.5
20260902074527 73 236 0.0 0.0 0.00 0.00 0.00 91 1016.5
20260902074026 73 236 0.0 0.0 0.00 0.00 0.00 91 1016.5
20260902073527 73 236 0.0 0.0 0.00 0.00 0.00 90 1016.5
20260902073027 73 236 0.0 0.0 0.00 0.00 0.00 90 1016.5
20260902072527 73 236 0.0 0.0 0.00 0.00 0.00 90 1016.5
20260902072027 73 236 0.0 0.0 0.00 0.00 0.00 90 1016.5
20260902071526 73 236 0.0 0.0 0.00 0.00 0.00 90 1016.5
20260902071027 74 236 0.0 0.0 0.00 0.00 0.00 90 1016.5
20260902070528 74 236 0.0 0.0 0.00 0.00 0.00 90 1016.5
20260902070027 74 236 0.0 0.0 0.00 0.00 0.00 90 1016.5
20260902065530 74 236 0.0 0.0 0.00 0.00 0.00 90 1016.6
20260902065526 74 236 0.0 0.0 0.00 0.00 0.00 90 1016.6
20260902064527 74 236 0.0 0.0 0.00 0.00 0.00 90 1016.5
20260902064031 74 236 0.0 0.0 0.00 0.00 0.00 90 1016.5
20260902064026 74 236 0.0 0.0 0.00 0.00 0.00 90 1016.5
20260902063631 74 236 0.0 0.0 0.00 0.00 0.00 90 1016.6
20260902063024 74 236 0.0 0.0 0.00 0.00 0.00 90 1016.5
20260902062025 74 236 0.0 0.0 0.00 0.00 0.00 90 1016.5
20260902061524 74 236 0.0 0.0 0.00 0.00 0.00 90 1016.5
20260902061022 74 236 0.0 0.0 0.00 0.00 0.00 89 1016.5
20260902060527 74 236 0.0 0.0 0.00 0.00 0.00 89 1016.5
20260902060523 74 236 0.0 0.0 0.00 0.00 0.00 89 1016.5
20260902055522 74 236 0.0 0.0 0.00 0.00 0.00 89 1016.5
20260902055020 74 236 0.0 0.0 0.00 0.00 0.00 89 1016.6
20260902054520 74 236 0.0 0.0 0.00 0.00 0.00 89 1016.6
20260902054021 74 236 0.0 0.0 0.00 0.00 0.00 89 1016.6
20260902053520 74 236 0.0 0.0 0.00 0.00 0.00 89 1016.7
20260902053021 74 236 0.0 0.0 0.00 0.00 0.00 89 1016.6
20260902052521 74 236 0.0 0.0 0.00 0.00 0.00 89 1016.6
20260902052020 74 236 0.0 0.0 0.00 0.00 0.00 88 1016.6
20260902051519 75 236 0.0 0.0 0.00 0.00 0.00 88 1016.6
20260902051018 75 236 0.0 0.0 0.00 0.00 0.00 88 1016.6
20260902050522 75 236 0.0 0.0 0.00 0.00 0.00 87 1016.6
20260902050518 75 236 0.0 0.0 0.00 0.00 0.00 88 1016.6
20260902045518 75 236 0.0 0.0 0.00 0.00 0.00 87 1016.5
20260902045018 75 236 0.0 0.0 0.00 0.00 0.00 87 1016.6
20260902044517 75 236 0.0 0.0 0.00 0.00 0.00 87 1016.7
20260902044023 75 236 0.0 0.0 0.00 0.00 0.00 87 1016.6
20260902044019 75 236 0.0 0.0 0.00 0.00 0.00 87 1016.6
20260902043018 75 236 0.0 0.0 0.00 0.00 0.00 86 1016.6
20260902042517 76 236 0.0 0.0 0.00 0.00 0.00 86 1016.6
20260902042017 76 236 0.0 0.0 0.00 0.00 0.00 86 1016.7
20260902041516 76 236 0.0 0.0 0.00 0.00 0.00 86 1016.7
20260902041016 76 236 0.0 0.0 0.00 0.00 0.00 85 1016.7
20260902040515 76 236 0.0 0.0 0.00 0.00 0.00 85 1016.6
20260902040016 76 236 0.0 0.0 0.00 0.00 0.00 85 1016.7
20260902035516 76 236 0.0 0.0 0.00 0.00 0.00 86 1016.7
20260902035020 76 236 0.0 0.0 0.00 0.00 0.00 86 1016.7
20260902035015 76 236 0.0 0.0 0.00 0.00 0.00 86 1016.7
20260902034016 76 236 0.0 0.0 0.00 0.00 0.00 85 1016.7
20260902033516 76 236 0.0 0.0 0.00 0.00 0.00 85 1016.7
20260902033017 76 236 0.0 0.0 0.00 0.00 0.00 84 1016.7
20260902033013 76 236 0.0 0.0 0.00 0.00 0.00 84 1016.7
20260902032011 77 236 0.0 0.0 0.00 0.00 0.00 83 1016.6
20260902031516 77 236 0.0 0.0 0.00 0.00 0.00 82 1016.7
20260902031511 77 236 0.0 0.0 0.00 0.00 0.00 83 1016.6
20260902030512 78 236 0.0 0.0 0.00 0.00 0.00 81 1016.7
20260902030012 78 236 0.0 0.0 0.00 0.00 0.00 80 1016.7
20260902025512 78 236 0.0 0.0 0.00 0.00 0.00 80 1016.7
20260902025012 79 236 0.0 0.0 0.00 0.00 0.00 79 1016.7
20260902024512 79 236 0.0 0.0 0.00 0.00 0.00 79 1016.6
20260902024016 79 236 0.0 0.0 0.00 0.00 0.00 78 1016.6
20260902024011 79 236 0.0 0.0 0.00 0.00 0.00 78 1016.6
20260902023512 79 236 0.0 0.0 0.00 0.00 0.00 78 1016.6
20260902022512 79 236 0.0 0.0 0.00 0.00 0.00 78 1016.5
20260902022018 80 236 0.0 0.0 0.00 0.00 0.00 75 1016.5
20260902022012 79 236 0.0 0.0 0.00 0.00 0.00 78 1016.6
20260902021512 80 236 0.0 0.0 0.00 0.00 0.00 77 1016.5
20260902020511 81 236 0.0 0.0 0.00 0.00 0.00 74 1016.5
20260902020012 81 236 0.0 0.0 0.00 0.00 0.00 73 1016.4
20260902015508 82 236 0.0 0.0 0.00 0.00 0.00 73 1016.4
20260902015007 82 236 0.0 0.0 0.00 0.00 0.00 72 1016.4
20260902014507 82 236 0.0 0.0 0.00 0.00 0.00 72 1016.3
20260902014007 82 236 0.0 0.0 0.00 0.00 0.00 72 1016.4
20260902013508 82 236 0.0 0.0 0.00 0.00 0.00 72 1016.4
20260902013008 82 236 0.0 0.0 0.00 0.00 0.00 73 1016.3
20260902012507 81 236 0.0 0.0 0.00 0.00 0.00 74 1016.3
20260902012007 82 236 0.0 0.0 0.00 0.00 0.00 75 1016.1
20260902011507 82 236 0.0 0.0 0.00 0.00 0.00 75 1016.1
20260902011008 82 236 0.0 0.0 0.00 0.00 0.00 75 1016.1
20260902010506 82 236 0.0 0.0 0.00 0.00 0.00 75 1016.1
20260902010005 82 236 0.0 0.0 0.00 0.00 0.00 75 1016.0
20260902005510 80 236 0.0 0.0 0.00 0.00 0.00 78 1016.0
20260902005506 81 236 0.0 0.0 0.00 0.00 0.00 76 1016.0
20260902005111 80 236 0.0 0.0 0.00 0.00 0.00 81 1016.0
20260902004005 80 236 0.0 0.0 0.00 0.00 0.00 83 1016.0
20260902003505 80 236 0.0 0.0 0.00 0.00 0.00 82 1016.0
20260902003005 81 236 0.0 0.0 0.00 0.00 0.00 82 1016.0
20260902002506 82 236 0.0 0.0 0.00 0.00 0.00 82 1016.0
20260902002005 83 236 0.0 0.0 0.00 0.00 0.00 80 1016.1